This is the latest recevied weather packets stored in our database for station/object JF2ZGN-13. If no packets are shown the sender has not sent any weather packets the latest 10 day(s).
| Time | Temp. | Humidity | Pressure | Rain* | Wind** | Luminosity | Snow |
|---|---|---|---|---|---|---|---|
| 1777782262 | 16.11° C | 48% | 905.1 hPa | 0 mm | - | - | - |
| 1777781663 | 16.67° C | 43% | 905.2 hPa | 0 mm | - | - | - |
| 1777781061 | 16.11° C | 48% | 905.4 hPa | 0 mm | - | - | - |
| 1777780462 | 17.22° C | 46% | 905.6 hPa | 0 mm | - | - | - |
| 1777779860 | 18.33° C | 47% | 905.7 hPa | 0 mm | - | - | - |
| 1777779259 | 18.89° C | 40% | 905.9 hPa | 0 mm | - | - | - |
| 1777778658 | 18.33° C | 42% | 905.9 hPa | 0 mm | - | - | - |
| 1777778057 | 17.78° C | 46% | 906 hPa | 0 mm | - | - | - |
| 1777777458 | 18.33° C | 41% | 906.2 hPa | 0 mm | - | - | - |
| 1777776856 | 18.33° C | 37% | 906.2 hPa | 0 mm | - | - | - |
| 1777776256 | 17.78° C | 44% | 906.4 hPa | 0 mm | - | - | - |
| 1777775656 | 18.33° C | 40% | 906.3 hPa | 0 mm | - | - | - |
| 1777775055 | 17.22° C | 42% | 906.5 hPa | 0 mm | - | - | - |
| 1777774455 | 17.22° C | 51% | 906.5 hPa | 0 mm | - | - | - |
| 1777773854 | 16.67° C | 46% | 906.6 hPa | 0 mm | - | - | - |
| 1777773254 | 16.11° C | 37% | 906.6 hPa | 0 mm | - | - | - |
| 1777772654 | 16.11° C | 44% | 906.9 hPa | 0 mm | - | - | - |
| 1777772053 | 16.67° C | 43% | 907 hPa | 0 mm | - | - | - |
| 1777771452 | 16.11° C | 40% | 907.1 hPa | 0 mm | - | - | - |
| 1777770852 | 16.11° C | 35% | 907.2 hPa | 0 mm | - | - | - |
| 1777770252 | 17.22° C | 39% | 907.2 hPa | 0 mm | - | - | - |
| 1777769651 | 18.33° C | 43% | 907.3 hPa | 0 mm | - | - | - |
| 1777769051 | 18.33° C | 39% | 907.3 hPa | 0 mm | - | - | - |
| 1777768450 | 17.78° C | 37% | 907.2 hPa | 0 mm | - | - | - |
| 1777767850 | 17.78° C | 42% | 907.1 hPa | 0 mm | - | - | - |
* Rain since midnight (hover to see other rain measurements)
** Current wind speed in m/s (hover to see current wind gust speed)